Location: Herm
(49.4830°N, 2.4500°W)
Time: 20:16:47
(UTC+00:00)

NOAA 15 - Pass Details

Date: 03 November 2021
Orbit: 797 x 812 km, 98.7° (Epoch: 27 November)

Event Time Altitude Azimuth Distance (km) Brightness Sun altitude
Rises 18:51:10 0° 164° (SSE) 3,321 7.6 -20.9°
Reaches altitude 10° 18:53:30 10° 165° (SSE) 2,395 6.9 -21.3°
Maximum altitude 18:58:49 86° 253° (WSW) 822 4.6 -22.2°
Drops below altitude 10° 19:04:10 10° 344° (NNW) 2,412 7.3 -23.0°
Sets 19:06:32 0° 345° (NNW) 3,347 8.0 -23.4°
